This is the latest recevied weather packets stored in our database for station/object IV3CGM-13. If no packets are shown the sender has not sent any weather packets the latest 10 day(s).
| Time | Temp. | Humidity | Pressure | Rain* | Wind** | Luminosity | Snow |
|---|---|---|---|---|---|---|---|
| 1777620290 | 13.33° C | 41% | 1027 hPa | 0 mm | - | 467 W/m² | - |
| 1777619553 | 13.33° C | 45% | 1027 hPa | 0 mm | - | 426 W/m² | - |
| 1777618853 | 12.78° C | 47% | 1027 hPa | 0 mm | - | 349 W/m² | - |
| 1777618166 | 12.78° C | 50% | 1027 hPa | 0 mm | - | 344 W/m² | - |
| 1777617478 | 12.78° C | 52% | 1026.9 hPa | 0 mm | - | 59 W/m² | - |
| 1777616790 | 12.22° C | 51% | 1026.8 hPa | 0 mm | - | 57 W/m² | - |
| 1777616054 | 11.67° C | 53% | 1026.8 hPa | 0 mm | - | 233 W/m² | - |
| 1777615353 | 12.22° C | 44% | 1026.7 hPa | 0 mm | - | 198 W/m² | - |
| 1777614665 | 11.11° C | 51% | 1026.7 hPa | 0 mm | - | 163 W/m² | - |
| 1777613978 | 10.56° C | 55% | 1026.8 hPa | 0 mm | - | 130 W/m² | - |
| 1777613290 | 10° C | 58% | 1026.7 hPa | 0 mm | - | 97 W/m² | - |
| 1777612554 | 9.44° C | 54% | 1026.6 hPa | 0 mm | - | 65 W/m² | - |
| 1777611853 | 8.89° C | 57% | 1026.5 hPa | 0 mm | - | 43 W/m² | - |
| 1777611165 | 8.33° C | 60% | 1026.6 hPa | 0 mm | - | 34 W/m² | - |
| 1777610478 | 7.22° C | 63% | 1026.6 hPa | 0 mm | - | 28 W/m² | - |
| 1777609790 | 7.78° C | 62% | 1026.4 hPa | 0 mm | - | 22 W/m² | - |
| 1777609053 | 7.22° C | 63% | 1026.5 hPa | 0 mm | - | 14 W/m² | - |
| 1777608352 | 6.67° C | 67% | 1026.4 hPa | 0 mm | - | 8 W/m² | - |
| 1777607664 | 7.22° C | 70% | 1026.4 hPa | 0 mm | - | 3 W/m² | - |
| 1777606977 | 7.22° C | 62% | 1026.3 hPa | 0 mm | - | 1 W/m² | - |
| 1777606289 | 7.22° C | 61% | 1026.3 hPa | 0 mm | - | 0 W/m² | - |
| 1777605553 | 6.67° C | 66% | 1026.4 hPa | 0 mm | - | 0 W/m² | - |
| 1777604852 | 6.67° C | 68% | 1026.3 hPa | 0 mm | - | 0 W/m² | - |
| 1777603414 | 6.67° C | 61% | 1026.5 hPa | 0 mm | - | 0 W/m² | - |
| 1777602727 | 6.67° C | 62% | 1026.5 hPa | 0 mm | - | 0 W/m² | - |
* Rain latest hour (hover to see other rain measurements)
** Current wind speed in m/s (hover to see current wind gust speed)